Location: Mococo
(38.0255°N, 122.1161°W)
Time: 01:47:52
(UTC+00:00)

Cosmos 2346 Rocket - Pass Details

Date: 13 February 2026
Orbit: 935 x 979 km, 82.9° (Epoch: 10 March)

Event Time Altitude Azimuth Distance (km) Brightness Sun altitude
Rises 13:49:49 0° 351° (N) 3,651 7.4 -14.5°
Reaches altitude 10° 13:52:20 10° 350° (N) 2,695 6.7 -14.0°
Maximum altitude 13:58:30 78° 266° (W) 973 4.4 -12.8°
Drops below altitude 10° 14:04:32 10° 180° (S) 2,649 6.9 -11.6°
Sets 14:07:00 0° 179° (S) 3,585 7.6 -11.1°
